Torna al catalogo

ATLAS 5 CENTAUR DEB

LostHEO
NORAD 52968·DEBRIS·🇺🇸 United States

Lanciato Oct 17, 2018 da Cape Canaveral Space Force Station

Loading…

Prossimi Passaggi (prossime 24 ore)

TLE

ObsoletoSource: Space-Track

Epoca: Aug 9, 2024, 22:19 UTC

1 52968U 18079GS  24222.93019398 -.00000146  00000-0  00000+0 0  9990
2 52968  12.3246  75.3595 4462767 238.0667  70.8060  1.91148613 17375

Traccia ATLAS 5 CENTAUR DEB in tempo reale con AllMySat

Download on the App Store